Regional Weather Roundup
Issued by NWS

Home | Current Version | Previous Version | Graphics & Text | Print | Product List | Glossary On
Versions: 1 2 3 4 5 6 7 8 9 10 11 12 13 14 15 16 17 18 19 20 21 22 23 24 25 26 27 28 29 30 31 32 33 34 35 36 37 38 39 40 41 42 43 44 45 46 47 48 49 50
000
ASUS43 KTOP 261108
RWRKS

WEATHER ROUNDUP FOR KANSAS
NATIONAL WEATHER SERVICE GOODLAND KS
600 AM CDT MON SEP 26 2016

NOTE:  "FAIR" INDICATES FEW OR NO CLOUDS BELOW 12,000 FEET WITH NO
SIGNIFICANT WEATHER AND/OR OBSTRUCTIONS TO VISIBILITY.

KSZ001>006-013>018-027>032-041>047-261200-
NORTHWEST KANSAS

CITY           SKY/WX    TMP DP  RH WIND       PRES   REMARKS
GOODLAND       CLEAR     41  33  73 SW6       30.38S
HAYS           CLEAR     41  28  60 NW7       30.34S
HILL CITY      CLEAR     40  34  79 W5        30.36S
RUSSELL        CLEAR     45  36  70 NW6       30.33R
$$

KSZ061>065-074>080-084>089-261200-
SOUTHWEST KANSAS

CITY           SKY/WX    TMP DP  RH WIND       PRES   REMARKS
DODGE CITY     CLEAR     41  33  73 NW7       30.35F
ELKHART          N/A     45  30  55 W7          N/A
GARDEN CITY    CLEAR     41  32  70 NW7       30.36S
GREAT BEND     CLEAR     45  32  61 NW6       30.33F
LIBERAL        CLEAR     43  30  61 NW8       30.37S
PRATT          CLEAR     41  37  84 N6        30.33R
$$

KSZ066>073-081>083-090>101-261200-
SOUTHEAST KANSAS

CITY           SKY/WX    TMP DP  RH WIND       PRES   REMARKS
CHANUTE        CLEAR     52  48  86 N6        30.25R
COFFEYVILLE    CLEAR     56  53  90 N10       30.23R
HUTCHINSON     CLEAR     45  42  89 NW5       30.31S
MEDICINE LODGE   N/A     46  41  82 N5          N/A
NEWTON         CLEAR    N/A N/A N/A NW7       30.30S
PARSONS        CLEAR     53  50  89 N7        30.25R
WICHITA INTL   CLEAR     52  45  77 N9        30.28F
WICHITA JABRA  CLEAR     48  44  86 NW8       30.28S
WICHITA MCCONL CLEAR     51  44  77 N8        30.28S
WINFIELD       CLEAR     50  47  89 N6        30.28S
$$

KSZ007>012-019>026-033>040-048>060-102>105-261200-
NORTHEAST KANSAS

CITY           SKY/WX    TMP DP  RH WIND       PRES   REMARKS
CONCORDIA      CLEAR     45  39  79 W8        30.30S
EMPORIA        CLEAR     49  44  83 W6        30.27S
LAWRENCE       CLEAR     48  46  93 NW8       30.26R
MANHATTAN      CLEAR     46  42  86 W3        30.29R
MARYSVILLE     CLEAR     41  39  93 CALM      30.28S
OLATHE IND     CLEAR     50  46  86 W5        30.25S
OLATHE EXE     CLEAR     51  45  79 NW3       30.24S
SALINA         CLEAR     47  40  76 CALM      30.31S HAZE
TOPEKA BILLARD CLEAR     50  44  80 W3        30.27R HAZE
TOPEKA FORBES  CLEAR     48  44  86 W3        30.27R
$$




USA.gov is the U.S. government's official web portal to all federal, state and local government web resources and services.